Weather Service Report


436 
ASUS44 KLZK 260205
RWRLZK

WEATHER ROUNDUP FOR ARKANSAS
NATIONAL WEATHER SERVICE LITTLE ROCK AR
800 PM CST SUN JAN 25 2015

NOTE: "FAIR" INDICATES FEW OR NO CLOUDS BELOW 12,000 FEET WITH NO
SIGNIFICANT WEATHER AND/OR OBSTRUCTIONS TO VISIBILITY.

ARZ001-003-010-029-260300-
NORTHWEST ARKANSAS
  
CITY           SKY/WX    TMP DP  RH WIND       PRES   REMARKS
FAYETTEVILLE   CLOUDY    40  32  73 N15G26    30.05R                  
FORT SMITH     CLOUDY    47  30  51 N15G22    30.06R                  
HARRISON       CLOUDY    39  33  79 NW20G30   29.99R                  
BENTONVILLE    CLOUDY    39  30  70 N13G22    30.06R                  
ROGERS         CLOUDY    39  32  76 N13G29    30.06R                  
SILOAM SPGS    CLOUDY    41  28  60 N20G25    30.08R                  
HIGHFILL       LGT RAIN  40  32  73 N21G31    30.05R                  
SPRINGDALE     CLOUDY    41  32  70 NW20G30   30.07R                  
$$

ARZ004-005-016-260300-
NORTH CENTRAL ARKANSAS
  
CITY           SKY/WX    TMP DP  RH WIND       PRES   REMARKS
BATESVILLE     CLOUDY    45  32  61 W12G22    29.93R                  
FLIPPIN        CLOUDY    41  30  65 NW13G31   29.97R                  
MTN HOME       CLOUDY    39  32  76 NW14G29   29.96R                  
$$

ARZ040-041-260300-
WEST CENTRAL ARKANSAS
  
CITY           SKY/WX    TMP DP  RH WIND       PRES   REMARKS
MENA           CLOUDY    52  34  50 NW10G16   30.03R                  
MOUNT IDA      CLOUDY    50  32  50 NW8       29.98R                  
$$

ARZ009-017-025-026-028-260300-
NORTHEAST ARKANSAS
  
CITY           SKY/WX    TMP DP  RH WIND       PRES   REMARKS
CORNING        CLOUDY    43  37  81 NW21G26   29.88R                  
JONESBORO      CLOUDY    43  36  76 NW12G22   29.87R                  
NEWPORT        CLOUDY    44  35  70 NW20      29.92R                  
WALNUT RIDGE   CLOUDY    43  34  70 NW20G26   29.88R                  
BLYTHEVILLE    CLOUDY    44  37  76 NW20G25   29.84R                  
$$

ARZ022-023-033-042-044-260300-
CENTRAL ARKANSAS
  
CITY           SKY/WX    TMP DP  RH WIND       PRES   REMARKS
LITTLE ROCK    CLOUDY    50  31  48 NW21G29   29.97R                  
N LITTLE ROCK  CLOUDY    47  36  64 NW6G16    29.97R                  
JACKSONVILLE   CLOUDY    48  33  56 W13G18    29.96R                  
SEARCY         CLOUDY    46  34  62 NW13G22   29.96R                  
HOT SPRINGS    CLOUDY    50  32  50 NW9       29.99R                  
RUSSELLVILLE   CLOUDY    48  33  56 NW14      29.99R                  
CLINTON        CLOUDY    45  34  65 NW14      29.98R                  
$$

ARZ036-260300-
EAST ARKANSAS
  
CITY           SKY/WX    TMP DP  RH WIND       PRES   REMARKS
WEST MEMPHIS   CLOUDY    44  37  76 NW13G21   29.88R                  
$$

ARZ050-053-066-070-073-260300-
SOUTHWEST ARKANSAS
  
CITY           SKY/WX    TMP DP  RH WIND       PRES   REMARKS
ARKADELPHIA    MOCLDY    53  34  48 NW10      30.00R                  
CAMDEN         MOCLDY    54  28  37 MISG      29.99R                  
TEXARKANA      CLEAR     51  31  46 NW13      30.03R                  
EL DORADO      MOCLDY    53  32  44 NW13G20   29.99R                  
DE QUEEN       CLEAR     51  32  48 NW8       30.03R                  
$$

ARZ056-057-069-260300-
SOUTHEAST ARKANSAS
  
CITY           SKY/WX    TMP DP  RH WIND       PRES   REMARKS
PINE BLUFF     CLOUDY    50  32  50 NW17G29   29.96R                  
STUTTGART      CLOUDY    48  32  53 NW18G26   29.94R                  
MONTICELLO     CLOUDY    53  32  44 NW13G21   29.94R                  

$$



Return to Home page


Western Regional Climate Center, wrcc@dri.edu